AirNav   Air Wisconsin Up To $57,000 Bonus
 
 1316 users online  

7W5 Henry County Airport
Napoleon, Ohio, USA

GOING TO NAPOLEON?


FAA INFORMATION EFFECTIVE 26 MARCH 2020

Location

FAA Identifier: 7W5
Lat/Long: 41-22-27.4000N 084-04-04.3000W
41-22.456667N 084-04.071667W
41.3742778,-84.0678611
(estimated)
Elevation: 683 ft. / 208.2 m (surveyed)
Variation: 05W (1985)
From city: 3 miles E of NAPOLEON, OH
Time zone: UTC -4 (UTC -5 during Standard Time)
Zip code: 43545

Airport Operations

Airport use: Open to the public
Activation date: 11/1971
Control tower: no
ARTCC: CLEVELAND CENTER
FSS: CLEVELAND FLIGHT SERVICE STATION
NOTAMs facility: CLE (NOTAM-D service available)
Attendance: APR-SEP MON-FRI 0800-1730, OCT-MAR MON-FRI 0800-1730
Wind indicator: lighted
Segmented circle: no
Lights: ACTVT MIRL RY 10/28; REIL RY 10/28 AND PAPI RWYS 10/28 - CTAF.
Beacon: white-green (lighted land airport)
Operates sunset to sunrise.

Airport Communications

CTAF/UNICOM: 123.0
TOLEDO APPROACH: 134.35
TOLEDO DEPARTURE: 134.35
WX AWOS-3P at USE (14 nm N): 127.375 (419-335-0775)
WX ASOS at DFI (16 nm W): 121.425 (419-658-2301)
WX ASOS at TOL (17 nm NE): PHONE 419-865-6924
WX AWOS-3 at 1G0 (20 nm E): 120.725 (419-354-1415)

Nearby radio navigation aids

VOR radial/distance  VOR name  Freq  Var
VWVr259/19.9WATERVILLE VOR/DME113.1002W
FBCr333/28.8FLAG CITY VORTAC108.2002W

 
NDB name  Hdg/Dist  Freq  Var  ID
TOPHR217/12.621905WTO - ---
ADRIAN185/29.727806WADG .- -.. --.

Airport Services

Fuel available: 100LL JET-A
Parking: hangars and tiedowns
Airframe service: MAJOR
Powerplant service: MAJOR
Bottled oxygen: LOW

Runway Information

Runway 10/28

Dimensions: 4001 x 65 ft. / 1220 x 20 m
Surface: asphalt, in poor condition
NUMEROUS OPEN CRACKS / NOT SEALED
Runway edge lights: medium intensity
RUNWAY 10  RUNWAY 28
Latitude: 41-22.517777N41-22.394432N
Longitude: 084-04.501945W084-03.642770W
Elevation: 680.7 ft.682.7 ft.
Traffic pattern: leftleft
Runway heading: 106 magnetic, 101 true286 magnetic, 281 true
Markings: nonprecision, in fair conditionnonprecision, in fair condition
Visual slope indicator: 2-light PAPI on left (3.00 degrees glide path)2-light PAPI on left (3.00 degrees glide path)
Runway end identifier lights: yesyes
Touchdown point: yes, no lightsyes, no lights
Obstructions: 5 ft. crops, 201 ft. from runway, 85 ft. right of centerline
RWY 10 +5 FT CROPS/CULTIVATED FIELD, 200 FT FM RWY 10 EXTENDING TO THLD RWY 10, 85 FT R TO 135 FT R. ALSO +6 FT CROPS/CULTIVATED FIELD, 200 FT FM RWY 10 EXTENDING TO THLD RWY 10, 135 FT L TO 200 FT L.
6 ft. crops, 201 ft. from runway, 125 ft. left of centerline

Airport Ownership and Management from official FAA records

Ownership: Publicly-owned
Owner: HENRY CO. ARPT AUTH.
10646 COUNTY RD O
NAPOLEON, OH 43545
Phone 419-599-6494
Manager: RANDY E. AMES
10646 COUNTY ROAD O
NAPOLEON, OH 43545
Phone 419-599-6494
ADDL CONTACT INFORMATION, RANDYAMES@AMESAVIATIONLTD.COM

Airport Operational Statistics

Aircraft based on the field: 18
Single engine airplanes: 17
Multi engine airplanes: 1
    
Aircraft operations: avg 43/day *
96% local general aviation
4% transient general aviation
<1% air taxi
* for 12-month period ending 02 June 2017

Additional Remarks

ATTENDANCE: WKEND ONLY BY REQ CALL 419-583-0150.
FOR CD CTC TOLEDO APCH AT 419-865-1495

Instrument Procedures

NOTE: All procedures below are presented as PDF files. If you need a reader for these files, you should download the free Adobe Reader.

NOT FOR NAVIGATION. Please procure official charts for flight.
FAA instrument procedures published for use from 26 March 2020 at 0901Z to 23 April 2020 at 0900Z.

 
IAPs - Instrument Approach Procedures
RNAV (GPS) RWY 28   download (171KB)
NOTE: Special Take-Off Minimums/Departure Procedures apply   download (164KB)

Other nearby airports with instrument procedures:

KUSE - Fulton County Airport (14 nm N)
KDFI - Defiance Memorial Airport (16 nm W)
KTOL - Toledo Express Airport (17 nm NE)
1G0 - Wood County Airport (20 nm E)
0G6 - Williams County Airport (21 nm W)
 
Loc | Ops | Rwys | IFR | FBO | Links
Com | Nav | Svcs | Stats | Notes
Area around 7W5 (Henry County Airport)
 
Road maps at: MapQuest Bing Google
 
Aerial photo
WARNING: Photo may not be current or correct
Aerial photo of 7W5 (Henry County Airport)
Photo by Roger Kellogg
Photo taken 29-Sep-2007

Do you have a better or more recent aerial photo of Henry County Airport that you would like to share? If so, please send us your photo.

 
Sectional chart

 
Airport diagram
CAUTION: Diagram may not be current
Diagram of 7W5 (Henry County Airport)
 
Airport distance calculator
Flying to Henry County Airport? Find the distance to fly.

From to 7W5

Sunrise and sunset
Times for 09-Apr-2020
 Local
(UTC-4)
 Zulu
(UTC)
Morning civil twilight06:3710:37
Sunrise07:0611:06
Sunset20:1000:10
Evening civil twilight20:3800:38

Current date and time
Zulu (UTC)  09-Apr-2020 19:22:20
Local (UTC-4)  09-Apr-2020 15:22:20
 
METAR
KUSE 
14nm N 
091855Z AUTO 30023G32KT 10SM -DZ BKN060 BKN070 09/M04 A2963 RMK AO2
KDFI 
17nm W 
091853Z AUTO 28013G30KT 10SM -RA SCT065 SCT080 08/M06 A2967 RMK AO2 PK WND 28032/1812 SLP047 P0000 T00831061
KTOL 
17nm NE 
091852Z 28019G32KT 10SM SCT060 OVC070 08/M05 A2961 RMK AO2 PK WND 29033/1811 SLP029 T00831050 $
KOWX 
21nm S 
091855Z AUTO 29027G35KT 10SM SCT065 BKN075 BKN090 09/M06 A2968 RMK AO1
KFDY 
28nm SE 
091853Z AUTO 27028G36KT 10SM SCT065 SCT080 11/M04 A2962 RMK AO2 PK WND 27036/1853 SLP028 T01061044
KDUH 
29nm NE 
091855Z AUTO 27016G23KT 10SM BKN060 BKN070 08/M04 A2960 RMK AO2 T00771043
KTDZ 
29nm NE 
091853Z AUTO 28022G33KT 10SM -RA BKN055 OVC070 08/M03 A2961 RMK AO2 PK WND 27034/1814 RAB45 SLP027 P0000 T00831033
TAF
KTOL 
17nm NE 
091739Z 0918/1018 28019G33KT P6SM SCT045 BKN080 FM100000 30015G28KT P6SM FEW050 SCT200 FM101300 30015G30KT P6SM SCT035
NOTAMs
Click for the latest NOTAMs
NOTAMs are issued by the DoD/FAA and will open in a separate window not controlled by AirNav.

 

 
 

FBO, Fuel Providers, and Aircraft Ground Support

  
 Business Name 
 
 Contact 
 
 Services / Description 
 
Fuel Prices
 
Comments
  
Ames Aviation 419-599-6494
no information available

If you are affiliated with Ames Aviation and would like to show here your services, contact info, web link, logo, and more, click here
100LL Jet A
FS --- $4.08 
SS $5.00 --- 
 Updated 02-Apr-2020
 
   write
FS=Full service
SS=Self service
Update Fuel Prices
 

Would you like to see your business listed on this page?

 If your business provides an interesting product or service to pilots, flight crews, aircraft, or users of the Henry County Airport, you should consider listing it here.  To start the listing process, click on the button below
 
Add a business
 

Other Pages about Henry County Airport

Update a link
 
Copyright © AirNav, LLC. All rights reserved. Privacy Policy  Contact